Wind_Speed
72 67 66 66 62 60 56 52 51 49 49 46 44 44 41 37 37 35 32 31 28 26 19 19 18 16 18 21 25 20 20 22 26 28 35 35 32 30 29 29 31 25 18 19 19
78 71 66 70 64 66 63 59 55 52 52 48 44 44 41 39 39 40 36 33 31 27 19 19 19 19 20 19 20 23 24 26 28 25 34 40 37 36 34 29 34 27 20 19 22
84 84 75 72 70 68 69 64 62 57 57 55 46 44 41 44 39 37 39 36 35 25 22 22 20 19 18 17 20 27 28 28 29 29 33 42 40 35 35 33 33 28 24 20 25
83 85 89 81 79 73 72 68 66 65 58 60 49 48 45 44 43 38 41 40 33 30 26 24 22 22 25 22 23 28 22 30 30 30 37 37 40 42 38 35 33 29 24 26 23
84 84 83 86 85 81 79 72 69 70 64 58 58 54 48 46 44 42 42 43 36 35 32 30 25 27 29 27 24 25 26 30 33 35 37 37 41 44 41 36 34 29 27 26 25
81 85 86 83 89 84 84 78 73 75 69 65 59 59 54 53 46 46 44 44 43 38 34 33 31 33 32 30 28 29 31 36 36 38 38 38 40 38 41 41 34 33 29 29 28
84 82 83 86 85 85 83 78 78 80 74 71 65 64 56 55 53 46 50 47 46 42 36 37 34 38 37 36 33 35 37 37 35 39 38 35 40 45 46 42 39 35 33 30 31
90 87 84 84 89 87 91 84 85 82 80 75 67 66 60 61 54 52 53 51 49 45 42 44 43 42 42 42 43 40 38 36 38 39 36 34 43 50 48 44 43 38 36 36 33
93 93 91 86 84 88 89 89 85 82 82 76 73 74 68 64 60 56 54 52 51 50 49 48 47 45 44 44 42 43 45 37 37 36 39 37 46 52 52 51 44 42 41 39 38
92 93 97 91 89 87 87 91 88 87 86 87 81 78 74 68 67 65 60 58 56 55 50 52 51 47 48 48 46 46 47 44 45 44 42 40 47 51 44 49 44 44 45 43 43
95 94 95 97 94 90 90 87 90 86 87 87 82 85 77 74 73 70 64 62 61 57 52 52 56 50 50 50 52 51 51 50 51 42 49 46 49 46 46 43 43 43 46 45 45
97 96 95 95 94 92 91 92 89 88 86 86 87 82 80 76 78 71 69 67 66 64 63 59 58 57 53 51 54 55 56 55 51 46 47 49 49 49 54 53 44 45 46 48 46
97 99 98 98 97 95 93 91 93 92 90 86 88 87 86 85 86 79 75 74 72 68 68 65 63 59 56 55 56 55 60 60 57 50 50 52 54 55 51 50 51 45 46 47 47
85 92 100 101 99 101 100 96 95 92 91 91 91 89 86 90 89 87 82 80 79 79 77 71 66 67 65 64 58 59 62 62 56 54 53 55 59 55 51 56 47 46 46 47 48
73 81 92 101 106 104 102 102 99 95 93 92 93 92 92 89 87 84 81 81 80 75 73 69 69 71 72 64 63 63 62 62 63 57 58 59 61 58 54 50 53 46 46 49 50
68 71 81 93 103 110 108 106 105 103 98 95 94 93 94 91 90 85 81 80 80 76 75 73 73 67 67 68 66 66 64 63 60 60 60 64 63 58 54 54 47 50 45 50 48
64 65 70 83 96 104 108 110 107 103 101 100 92 90 94 90 91 87 83 80 81 82 80 76 76 75 75 71 68 67 64 65 61 63 63 68 68 58 57 55 49 50 46 49 49
62 62 66 70 77 90 101 105 101 91 95 91 89 87 87 91 89 82 78 77 80 82 79 77 77 76 73 72 71 67 69 69 67 67 69 69 63 53 54 65 56 53 47 50 52
61 59 64 68 70 80 87 94 87 93 86 88 90 84 78 91 91 87 84 84 79 78 80 81 79 77 74 72 69 70 74 73 68 71 71 64 58 58 61 65 63 51 51 51 54
60 60 62 67 70 73 79 81 90 99 94 93 95 93 89 74 82 85 80 79 79 80 81 83 81 79 77 77 75 70 70 69 69 67 64 68 64 59 64 65 55 53 54 55 58
63 62 64 69 68 67 65 81 95 100 105 99 93 89 84 87 79 79 80 82 79 79 84 85 81 76 74 73 71 70 70 72 75 73 66 70 63 65 62 59 56 56 59 60 60
63 63 62 66 71 69 66 81 95 103 106 108 107 100 88 81 79 77 77 80 82 86 77 71 71 74 71 69 70 73 77 74 65 70 67 64 61 64 63 60 63 62 64 65 65
64 62 62 63 62 65 67 73 97 99 98 101 100 98 98 86 82 84 81 77 75 77 77 75 73 71 71 74 72 73 69 69 67 65 61 58 64 64 69 69 68 67 69 70 71
66 64 63 58 63 67 66 72 87 101 100 99 96 98 96 95 88 90 78 79 78 78 80 80 77 78 78 73 72 71 67 64 64 63 66 64 67 70 70 73 74 75 73 73 76
66 60 56 54 59 65 66 71 78 97 93 91 85 88 87 84 87 91 95 91 86 80 83 82 85 85 82 78 78 73 71 72 72 71 73 74 72 78 76 73 80 79 78 79 78
64 57 58 58 62 67 71 68 70 78 97 96 86 84 87 83 77 79 82 85 82 79 82 80 73 75 75 74 74 71 71 75 77 79 78 78 77 82 83 84 85 83 81 84 83
62 58 66 62 61 66 62 66 68 76 81 90 87 88 84 90 90 90 84 82 86 84 84 79 75 75 77 77 79 71 78 80 80 83 85 84 87 86 86 89 88 90 86 86 86
Wind_Direction
223 227 230 227 229 233 235 232 234 232 225 222 227 225 235 246 253 246 245 248 254 251 263 261 280 300 316 320 322 312 323 330 339 344 1 355 344 336 338 336 333 325 310 296 293
222 221 226 225 220 229 232 236 237 233 231 222 228 228 234 235 245 249 247 249 250 248 245 260 275 290 308 318 324 320 320 323 328 330 350 353 346 338 332 331 330 324 305 297 294
225 225 219 223 226 229 234 235 240 239 229 231 226 230 234 235 238 246 247 249 247 235 243 254 264 281 299 319 329 325 320 326 328 334 331 341 344 333 327 325 325 320 302 294 292
229 227 227 225 225 229 229 235 238 241 233 231 232 231 235 236 239 245 247 245 245 237 244 251 263 278 292 299 319 317 316 337 336 330 336 330 337 334 327 327 324 321 301 297 292
228 229 229 229 225 229 230 233 234 238 234 234 240 236 237 235 237 240 245 244 242 241 243 247 259 278 288 296 305 316 312 322 327 327 330 329 334 333 325 324 323 315 307 302 297
227 229 230 230 230 229 230 231 232 237 236 238 243 235 239 235 236 242 244 243 241 241 246 253 269 275 285 288 297 303 302 313 322 323 323 337 342 337 332 319 321 315 309 305 301
228 229 228 230 231 230 228 228 231 235 236 240 242 238 238 238 237 244 242 243 246 242 253 257 265 275 281 283 290 299 301 306 319 318 318 328 337 334 331 320 319 314 310 307 308
229 228 228 229 230 231 231 229 229 233 237 240 242 234 237 240 239 243 242 240 242 245 251 258 264 272 277 282 285 294 300 302 308 317 309 324 327 329 330 323 317 313 310 307 304
228 228 228 228 230 230 229 231 232 231 235 237 240 238 240 241 242 242 240 244 240 246 252 258 266 265 275 282 287 290 294 296 312 313 312 312 322 323 323 324 313 313 310 308 305
230 228 227 229 229 231 231 228 231 232 233 232 237 239 239 237 242 247 244 244 247 249 250 256 262 268 270 278 286 286 289 295 301 305 311 303 316 326 322 321 312 309 308 309 307
230 230 228 227 227 230 231 229 230 230 233 234 235 237 238 241 242 243 244 244 247 249 251 255 261 266 272 278 284 286 288 290 298 300 304 307 316 321 322 321 312 310 306 309 308
231 231 230 228 227 227 228 230 230 230 230 233 235 235 237 236 238 238 241 246 250 248 257 261 258 262 267 276 282 280 285 286 292 294 299 315 317 318 319 319 315 307 308 307 307
230 230 231 230 228 227 226 229 230 232 231 232 235 236 235 236 237 240 242 248 249 254 255 260 261 258 263 274 279 278 282 284 289 288 292 307 312 316 312 315 316 305 306 306 307
228 229 230 230 230 229 226 231 230 232 233 233 235 235 237 238 239 242 243 242 247 251 253 258 257 260 261 270 274 274 278 281 287 280 283 295 306 314 310 312 315 306 306 304 304
229 228 227 228 229 230 228 231 230 234 232 234 235 238 237 238 241 243 243 242 244 246 251 253 257 259 264 269 272 274 277 280 283 278 277 297 306 310 309 310 311 307 303 303 304
231 231 229 227 226 228 228 228 230 230 232 235 236 238 240 242 241 242 242 243 240 243 247 253 256 258 263 268 266 272 273 273 282 273 276 291 302 305 304 309 303 306 303 300 302
230 230 228 226 227 226 226 227 228 230 231 233 235 236 236 239 242 244 242 241 240 243 246 250 254 258 262 266 265 272 268 274 280 275 282 288 298 298 301 306 299 305 301 300 300
228 228 227 225 224 225 225 224 224 222 226 226 225 232 235 237 240 238 237 241 243 243 246 249 251 257 261 261 265 269 267 276 280 273 279 289 293 290 298 302 300 302 299 296 296
227 226 227 222 222 223 221 219 217 214 216 217 224 223 229 233 235 239 236 238 243 243 243 246 249 256 258 260 264 267 269 274 276 272 282 290 288 288 297 302 300 294 294 293 295
225 225 223 222 220 222 220 211 210 213 211 214 217 223 224 228 237 240 239 238 241 240 243 245 251 259 260 259 265 269 271 274 274 277 285 288 288 283 292 298 294 292 295 292 293
222 224 224 222 219 218 215 210 209 212 211 214 219 222 229 232 231 237 239 240 239 243 246 247 255 257 257 263 267 269 269 269 273 278 282 285 282 278 287 290 291 292 291 291 290
222 222 224 221 223 217 210 211 210 213 214 219 222 226 227 229 229 228 232 236 239 244 247 249 255 256 259 257 262 264 267 271 271 279 278 278 271 276 282 287 291 291 292 290 290
221 222 223 222 220 222 214 213 212 213 214 220 224 224 226 227 231 229 231 236 241 242 246 251 253 253 259 260 261 263 264 269 272 274 266 274 275 278 279 288 287 288 291 289 289
219 220 222 216 212 219 214 215 214 212 213 216 220 223 226 229 230 230 232 237 240 244 245 248 251 256 257 257 261 266 268 269 270 269 272 275 278 278 282 284 282 287 286 286 286
218 220 221 218 213 214 213 216 220 216 215 216 221 222 224 228 234 234 237 241 242 247 249 253 255 256 257 259 263 268 269 271 270 269 276 275 279 277 284 283 284 284 281 280 282
218 219 220 216 215 210 213 215 220 221 219 220 224 225 226 229 231 233 237 242 245 242 246 249 248 255 257 255 261 264 269 267 270 274 275 278 276 282 283 284 283 281 282 280 279
218 219 219 216 216 213 215 217 220 220 220 220 221 222 223 227 230 234 236 236 235 241 245 246 249 250 252 255 258 265 266 270 273 274 277 278 279 281 282 283 283 283 282 280 280
Height
10815 10821 10828 10834 10841 10846 10852 10857 10863 10868 10872 10876 10881 10884 10888 10891 10893 10894 10896 10898 10900 10901 10902 10903 10903 10903 10902 10900 10898 10896 10895 10892 10890 10888 10884 10880 10876 10872 10870 10867 10864 10861 10858 10855 10853
10802 10810 10817 10824 10830 10837 10842 10847 10853 10859 10864 10869 10874 10878 10882 10885 10887 10889 10891 10893 10894 10896 10898 10898 10899 10899 10899 10897 10895 10893 10891 10889 10887 10884 10882 10879 10874 10869 10866 10865 10860 10857 10853 10851 10848
10788 10796 10805 10812 10819 10826 10832 10838 10844 10850 10856 10862 10866 10871 10874 10878 10881 10884 10886 10888 10889 10891 10892 10893 10894 10895 10895 10894 10892 10890 10888 10885 10883 10881 10878 10875 10871 10867 10863 10861 10857 10853 10849 10846 10843
10773 10781 10790 10799 10807 10813 10821 10827 10834 10840 10847 10853 10858 10862 10866 10870 10875 10876 10879 10881 10884 10885 10887 10888 10889 10889 10890 10890 10889 10886 10884 10882 10880 10878 10876 10872 10866 10863 10859 10856 10852 10848 10844 10840 10838
10758 10764 10774 10783 10793 10802 10810 10817 10824 10830 10838 10844 10850 10854 10858 10862 10867 10870 10872 10875 10877 10880 10881 10882 10883 10884 10884 10884 10884 10882 10880 10878 10876 10873 10872 10869 10864 10857 10853 10851 10846 10843 10840 10836 10832
10743 10750 10760 10768 10778 10788 10797 10804 10812 10819 10827 10833 10840 10845 10850 10854 10858 10862 10865 10867 10870 10873 10874 10876 10877 10878 10879 10879 10879 10879 10876 10874 10871 10869 10867 10865 10861 10855 10850 10845 10841 10837 10834 10830 10827
10727 10736 10746 10754 10762 10772 10782 10791 10800 10808 10816 10822 10829 10835 10840 10846 10850 10853 10857 10860 10863 10865 10868 10869 10870 10871 10873 10873 10873 10873 10872 10869 10866 10864 10861 10858 10856 10853 10847 10841 10836 10831 10827 10823 10820
10711 10720 10731 10739 10748 10756 10766 10777 10787 10796 10802 10809 10817 10824 10830 10837 10841 10844 10848 10851 10855 10857 10859 10862 10863 10865 10865 10866 10866 10867 10865 10864 10861 10858 10856 10853 10851 10847 10841 10835 10829 10824 10820 10815 10813
10693 10704 10713 10725 10733 10742 10751 10762 10773 10781 10788 10796 10804 10812 10819 10826 10830 10834 10839 10844 10846 10848 10851 10853 10856 10857 10858 10858 10859 10859 10859 10858 10855 10852 10851 10848 10845 10840 10835 10830 10824 10819 10814 10810 10806
10674 10686 10697 10709 10719 10728 10737 10747 10757 10764 10772 10782 10791 10800 10806 10810 10817 10823 10830 10834 10838 10840 10842 10845 10847 10848 10850 10850 10851 10851 10850 10849 10849 10845 10844 10842 10839 10835 10830 10824 10818 10813 10808 10804 10799
10654 10665 10678 10692 10702 10713 10722 10731 10740 10749 10758 10767 10776 10783 10791 10799 10806 10813 10817 10823 10828 10832 10833 10836 10839 10841 10842 10841 10842 10843 10842 10842 10841 10839 10837 10835 10832 10828 10825 10819 10811 10806 10801 10796 10792
10635 10646 10659 10672 10685 10696 10704 10712 10723 10733 10743 10752 10762 10771 10779 10787 10793 10800 10807 10813 10816 10820 10823 10825 10829 10834 10832 10832 10833 10834 10833 10833 10833 10831 10829 10826 10824 10821 10818 10814 10807 10800 10794 10789 10785
10614 10628 10640 10652 10664 10675 10686 10695 10706 10716 10727 10738 10744 10756 10764 10774 10781 10788 10796 10800 10804 10809 10811 10816 10821 10822 10823 10823 10824 10825 10823 10823 10824 10822 10821 10819 10816 10813 10809 10805 10800 10793 10786 10781 10777
10595 10607 10620 10631 10646 10654 10665 10678 10689 10699 10711 10720 10728 10739 10752 10757 10769 10775 10781 10787 10792 10796 10802 10806 10808 10811 10812 10813 10814 10813 10813 10813 10813 10813 10812 10810 10809 10805 10800 10796 10792 10785 10778 10772 10767
10577 10588 10597 10611 10621 10634 10651 10661 10671 10683 10696 10706 10717 10722 10731 10745 10749 10760 10765 10774 10779 10785 10791 10794 10796 10798 10801 10802 10803 10802 10802 10802 10803 10801 10800 10800 10798 10796 10792 10787 10783 10777 10771 10765 10759
10561 10570 10580 10590 10600 10610 10626 10641 10651 10667 10682 10693 10700 10708 10716 10728 10734 10742 10753 10760 10766 10773 10777 10781 10783 10787 10789 10790 10790 10792 10791 10791 10791 10790 10789 10788 10788 10786 10781 10779 10774 10769 10763 10756 10751
10546 10553 10560 10568 10577 10591 10606 10624 10636 10655 10664 10677 10684 10691 10701 10711 10717 10730 10738 10746 10753 10759 10762 10768 10770 10774 10778 10778 10779 10780 10780 10780 10780 10779 10779 10776 10776 10774 10770 10768 10764 10760 10754 10747 10741
10532 10538 10545 10554 10560 10572 10586 10602 10626 10639 10646 10660 10668 10677 10687 10694 10704 10715 10724 10732 10738 10744 10749 10756 10758 10761 10764 10765 10767 10767 10767 10768 10767 10767 10767 10765 10760 10758 10759 10756 10752 10748 10744 10737 10732
10518 10526 10533 10541 10547 10555 10569 10588 10611 10620 10633 10645 10653 10663 10670 10679 10689 10700 10711 10718 10724 10731 10736 10740 10746 10748 10751 10752 10753 10753 10754 10755 10755 10754 10753 10751 10746 10745 10744 10742 10740 10737 10732 10726 10719
10506 10512 10519 10526 10533 10542 10556 10581 10593 10602 10618 10629 10638 10648 10657 10666 10677 10686 10696 10704 10710 10716 10721 10725 10731 10733 10736 10739 10740 10741 10741 10741 10741 10741 10739 10738 10732 10730 10730 10730 10726 10723 10719 10713 10706
10491 10498 10507 10515 10522 10534 10556 10569 10577 10584 10602 10614 10624 10635 10646 10656 10664 10673 10683 10690 10696 10701 10706 10711 10718 10719 10722 10723 10727 10727 10727 10727 10728 10726 10727 10724 10720 10709 10717 10716 10714 10710 10705 10700 10694
10480 10488 10494 10505 10515 10529 10544 10554 10563 10572 10586 10600 10610 10622 10635 10643 10652 10662 10669 10676 10682 10688 10693 10698 10703 10705 10709 10709 10712 10713 10713 10713 10711 10714 10710 10710 10706 10700 10700 10700 10700 10695 10690 10686 10682
10468 10477 10482 10492 10511 10522 10531 10539 10548 10561 10575 10587 10598 10611 10621 10631 10641 10649 10656 10662 10668 10675 10679 10682 10689 10692 10693 10695 10700 10699 10697 10698 10697 10696 10694 10698 10689 10692 10683 10686 10683 10681 10675 10670 10666
10456 10464 10473 10488 10499 10510 10521 10529 10534 10546 10560 10573 10584 10597 10607 10619 10625 10633 10641 10648 10654 10660 10664 10669 10674 10676 10677 10685 10682 10684 10684 10683 10682 10680 10679 10682 10678 10673 10678 10671 10667 10664 10663 10655 10650
10446 10462 10475 10486 10496 10503 10512 10517 10523 10536 10548 10560 10573 10585 10595 10604 10610 10620 10626 10633 10641 10646 10650 10656 10658 10660 10661 10667 10668 10668 10669 10668 10666 10662 10667 10661 10665 10652 10658 10661 10650 10650 10647 10640 10636
10443 10457 10464 10474 10480 10489 10495 10509 10518 10525 10538 10549 10559 10566 10577 10590 10597 10603 10613 10621 10629 10631 10634 10637 10643 10644 10645 10649 10651 10655 10655 10647 10648 10646 10649 10648 10647 10640 10639 10636 10632 10630 10628 10619 10620
10435 10446 10448 10460 10469 10481 10495 10500 10508 10513 10525 10534 10541 10551 10565 10572 10579 10590 10597 10602 10609 10612 10619 10623 10626 10625 10630 10634 10634 10646 10633 10629 10631 10627 10627 10628 10625 10625 10621 10614 10611 10604 10606 10600 10597